Flag for Norway Weather past 2 weeks in Tromsø, Norway

Now
50 °F

Sunny.


Feels Like: 48 °F
Forecast: 41 / 58 °F
Wind: 6 mph from North

Location: Tromso / Langnes

Current Time: Aug 23, 2014 at 8:07:41 PM

Latest Report: Aug 23, 2014 at 7:00 PM


Visibility: 25 mi

Pressure: 29.79 "Hg

Humidity: 74%

Dew point: 42 °F

Location of TromsøLocation

Historic Weather in Tromsø — Graph

°F

Tromsø temperature yesterday

Maximum temperature yesterday: 54 °F (at 3:00 PM)
Minimum temperature yesterday: 46 °F (at 11:00 PM)
Average temperature yesterday: 50 °F

Past Weeks' High & Low Weather Summary

 TemperatureHumidityPressure
High66 °F (Aug 11, 4:00 PM)97% (Aug 14, 3:00 AM)30.03 "Hg (Aug 14, 3:00 AM)
Low44 °F (Aug 17, 6:00 AM)51% (Aug 10, 3:00 PM)29.29 "Hg (Aug 13, 5:00 AM)
Average52 °F79%29.66 "Hg
* Reported Aug 8 6:00 PM — Aug 23 6:00 PM, Tromsø, Weather by CustomWeather, © 2014

Note: Actual official high and low records may vary slightly from our data, if they occured in-between our weather recording intervals... More about our weather records

Advertising

Tromsø weather history for previous 24 hours

 ConditionsComfort  
Time TempWeatherWind HumidityBarometerVisibility
6:00 PM
Aug 23
51 °FSunny.7 mph71%29.79 "Hg25 mi
5:00 PM52 °FSunny.7 mph69%29.79 "Hg25 mi
4:00 PM53 °FOvercast.6 mph67%29.79 "Hg22 mi
3:00 PM51 °FOvercast.6 mph70%29.80 "Hg25 mi
2:00 PM52 °FOvercast.5 mph71%29.79 "Hg25 mi
1:00 PM50 °FOvercast.6 mph72%29.80 "Hg28 mi
12:00 PM50 °FOvercast.6 mph74%29.79 "Hg25 mi
11:00 AM49 °FOvercast.6 mph74%29.79 "Hg28 mi
10:00 AM48 °FOvercast.5 mph76%29.79 "Hg31 mi
9:00 AM48 °FOvercast.5 mph76%29.78 "Hg28 mi
8:00 AM47 °FOvercast.3 mph80%29.77 "Hg31 mi
7:00 AM46 °FOvercast.3 mph80%29.77 "Hg28 mi
6:00 AM46 °FOvercast.5 mph82%29.77 "Hg31 mi
5:00 AM46 °FOvercast.5 mph82%29.77 "Hg31 mi
4:00 AM46 °FOvercast.6 mph82%29.77 "Hg31 mi
3:00 AM46 °FOvercast.6 mph83%29.78 "Hg31 mi
2:00 AM45 °FOvercast.5 mph85%29.77 "Hg31 mi
1:00 AM45 °FPassing clouds.6 mph86%29.77 "Hg31 mi
12:00 AM46 °FPassing clouds.6 mph84%29.78 "Hg31 mi
11:00 PM
Aug 22
46 °FPassing clouds.6 mph81%29.77 "Hg31 mi
10:00 PM47 °FOvercast.7 mph78%29.77 "Hg31 mi
9:00 PM48 °FOvercast.6 mph77%29.76 "Hg31 mi
8:00 PM49 °FOvercast.7 mph75%29.76 "Hg31 mi
Weather by CustomWeather, © 2014

See weather overviewHow to use our weather pages